Location: Praha
(50.0830°N, 14.4670°E)
Time: 03:25:37
(UTC+02:00)

ISS - Pass Details

Date: 13 May 2024
Orbit: 409 x 414 km, 51.6° (Epoch: 23 May)

Event Time Altitude Azimuth Distance (km) Brightness Sun altitude
Rises 22:44:19 0° 257° (WSW) 2,347 0.3 -15.1°
Reaches altitude 10° 22:46:25 10° 258° (WSW) 1,484 -0.7 -15.3°
Maximum altitude 22:49:45 82° 346° (NNW) 422 -3.8 -15.6°
Drops below altitude 10° 22:53:05 10° 75° (ENE) 1,484 -1.1 -15.9°
Enters shadow 22:53:59 - 76° (ENE) 1,857 -0.6 -16.0°
